Location: Star Hoppers Observatory
(42.7905°N, 83.6127°W)
Time: 23:38:10
(UTC-04:00)

Amateur Radio Satellites - All Passes

Search period start: 25 June 2017 23:08
Search period end: 26 June 2017 23:08
Location: Star Hoppers Observatory, 42.7905°N, 83.6127°W

Satellite Date Start Highest point End Downlink Frequencies (MHz)
Time Altitude Azimuth
FO-29 25 Jun 23:13:25 23:21:14 66° 101° (E) 23:28:56 435.910
RS-15 25 Jun 23:16:46 23:28:51 63° 311° (NW) 23:41:10 29.354- 29.394
M-CUBED/EXP-1 PRIME 25 Jun 23:18:01 23:21:44 66° 107° (ESE) 23:25:43 437.505
DELFI C3 25 Jun 23:21:25 23:24:21 20° 266° (W) 23:27:18 145.870
YUBILEINY 25 Jun 23:21:51 23:30:39 81° 278° (W) 23:39:34 435.215
PRISM 25 Jun 23:37:06 23:41:12 78° 102° (ESE) 23:45:20 437.425
PCSat 25 Jun 23:38:11 23:41:49 18° 255° (WSW) 23:45:26 145.827
TIGRISAT 25 Jun 23:48:58 23:53:40 86° 284° (WNW) 23:58:15 435.000
BEESAT 2 25 Jun 23:51:50 23:55:07 24° 315° (NW) 23:58:27 435.950
O/OREOS (USA 219) 25 Jun 23:59:13 00:02:21 18° 307° (NW) 00:05:28 437.305
AIST 2D 26 Jun 00:02:08 00:04:17 15° 92° (E) 00:06:25 435.315
SO-50 26 Jun 00:13:08 00:17:40 69° 238° (WSW) 00:22:10 436.795
ESTCUBE 1 26 Jun 00:15:13 00:19:43 88° 251° (WSW) 00:24:14 437.505/2401.250
VELOX 1 26 Jun 00:16:40 00:20:09 24° 66° (ENE) 00:23:40 145.980
EO-79 26 Jun 00:17:20 00:19:11 12° 90° (E) 00:21:00 145.935-145.965
NO-84 26 Jun 00:24:37 00:28:09 27° 337° (NNW) 00:31:51 435.350 FM
DUCHIFAT 1 26 Jun 00:30:36 00:32:54 14° 91° (E) 00:35:09 145.980
UNISAT 6 26 Jun 00:31:40 00:35:44 30° 292° (WNW) 00:39:43 437.425
SPROUT 26 Jun 00:34:58 00:38:54 38° 71° (ENE) 00:42:54 437.525
DX 1 26 Jun 00:36:50 00:39:00 14° 62° (ENE) 00:41:11 434.975-435.025
LO-87 26 Jun 00:38:15 00:41:07 23° 265° (W) 00:44:00 145.935 - 145.965
NANOSAT C BR1 26 Jun 00:38:36 00:41:44 20° 93° (E) 00:44:49 145.865
UKube-1 26 Jun 00:53:18 00:55:30 14° 62° (ENE) 00:57:42 .
M-CUBED/EXP-1 PRIME 26 Jun 00:54:37 00:55:48 11° 301° (WNW) 00:56:58 437.505
FO-29 26 Jun 00:59:09 01:05:40 31° 299° (WNW) 01:12:12 435.910
PRISM 26 Jun 01:15:19 01:15:52 10° 300° (WNW) 01:16:25 437.425
POLYITAN 1 26 Jun 01:15:48 01:20:02 55° 100° (E) 01:24:13 437.675
YUBILEINY 26 Jun 01:23:27 01:29:01 18° 301° (WNW) 01:34:38 435.215
QB50P2 26 Jun 01:26:36 01:30:55 81° 103° (ESE) 01:35:11 145.880/145.840
TIGRISAT 26 Jun 01:28:41 01:29:33 10° 301° (WNW) 01:30:23 435.000
RS-15 26 Jun 01:34:16 01:44:33 29° 342° (NNW) 01:54:48 29.354- 29.394
AIST 2D 26 Jun 01:34:27 01:37:35 31° 289° (WNW) 01:40:40 435.315
BUGSAT 1 26 Jun 01:38:26 01:41:54 24° 95° (E) 01:45:19 437.445
EO-79 26 Jun 01:51:05 01:55:19 59° 286° (WNW) 01:59:30 145.935-145.965
VELOX 1 26 Jun 01:52:29 01:56:26 33° 263° (W) 02:00:25 145.980
50 SAT 26 Jun 01:55:07 01:58:24 52° 259° (W) 02:01:44 437.505
Oscar 19 26 Jun 01:55:28 01:58:26 15° 90° (E) 02:01:22 437.125/150
NO-84 26 Jun 02:04:13 02:06:55 16° 358° (N) 02:09:40 435.350 FM
DUCHIFAT 1 26 Jun 02:04:43 02:08:52 52° 287° (WNW) 02:12:58 145.980
DX 1 26 Jun 02:10:24 02:14:40 62° 258° (WSW) 02:18:59 434.975-435.025
SPROUT 26 Jun 02:11:51 02:14:56 19° 267° (W) 02:18:03 437.525
NANOSAT C BR1 26 Jun 02:13:36 02:17:33 37° 290° (WNW) 02:21:28 145.865
ITUPSAT 1 26 Jun 02:18:21 02:20:19 12° 59° (ENE) 02:22:18 437.325
UKube-1 26 Jun 02:26:47 02:31:02 61° 260° (W) 02:35:18 .
BEESAT 26 Jun 02:27:10 02:29:56 15° 61° (ENE) 02:32:42 436.000
Gurwin Techsat 1B 26 Jun 02:50:31 02:55:17 32° 96° (E) 03:00:01 435.225
POLYITAN 1 26 Jun 02:52:56 02:55:21 15° 297° (WNW) 02:57:44 437.675
QB50P2 26 Jun 03:05:06 03:06:02 11° 300° (WNW) 03:06:58 145.880/145.840
BUGSAT 1 26 Jun 03:13:30 03:17:15 31° 291° (WNW) 03:20:58 437.445
MOZHAYETS 4 26 Jun 03:29:52 03:34:05 36° 70° (ENE) 03:38:21
Oscar 19 26 Jun 03:33:07 03:38:12 66° 287° (WNW) 03:43:16 437.125/150
NO-84 26 Jun 03:42:20 03:45:48 22° 19° (NNE) 03:49:16 435.350 FM
RS-15 26 Jun 03:52:10 04:02:24 29° 17° (NNE) 04:12:20 29.354- 29.394
ITUPSAT 1 26 Jun 03:52:37 03:57:26 85° 254° (WSW) 04:02:18 437.325
BEESAT 26 Jun 04:02:24 04:07:09 67° 258° (WSW) 04:11:57 436.000
ITAMSAT 1 26 Jun 04:12:03 04:16:15 24° 94° (E) 04:20:24 435.822/435.867
CUBESAT XI-V 26 Jun 04:13:00 04:16:22 20° 65° (ENE) 04:19:44 437.345
AO-7 26 Jun 04:19:17 04:26:41 33° 97° (E) 04:34:01 .
Gurwin Techsat 1B 26 Jun 04:30:26 04:35:11 34° 293° (WNW) 04:39:56 435.225
KKS-1 26 Jun 05:00:10 05:04:19 41° 70° (ENE) 05:08:30 437.445
MOZHAYETS 4 26 Jun 05:07:36 05:11:19 24° 266° (W) 05:15:03
NO-84 26 Jun 05:19:37 05:24:01 73° 39° (NE) 05:28:18 435.350 FM
STARS 26 Jun 05:28:39 05:32:38 35° 69° (ENE) 05:36:38 437.465
BEESAT 3 26 Jun 05:30:26 05:33:38 22° 44° (NE) 05:36:48 437.485
AO-85 26 Jun 05:48:04 05:52:05 53° 53° (NE) 05:56:20 145.980
CUBESAT XI-V 26 Jun 05:49:00 05:53:26 44° 262° (W) 05:57:52 437.345
ITAMSAT 1 26 Jun 05:50:54 05:55:53 45° 291° (WNW) 06:00:49 435.822/435.867
RS-15 26 Jun 06:05:57 06:18:06 62° 48° (NE) 06:29:36 29.354- 29.394
AO-7 26 Jun 06:11:37 06:19:47 58° 295° (WNW) 06:27:54 .
BEESAT 2 26 Jun 06:30:19 06:33:59 31° 48° (NE) 06:37:35 435.950
KKS-1 26 Jun 06:37:51 06:41:02 19° 267° (W) 06:44:15 437.445
STRAND 1 26 Jun 06:38:14 06:40:51 14° 59° (ENE) 06:43:28 437.568
XW-2C 26 Jun 06:45:36 06:47:41 14° 91° (E) 06:49:44 145.795 - 145.815
O/OREOS (USA 219) 26 Jun 06:49:24 06:51:53 14° 51° (NE) 06:54:22 437.305
DOVE 4 26 Jun 06:53:42 06:58:29 49° 99° (E) 07:03:28 437.250
NO-84 26 Jun 06:58:11 07:01:10 18° 236° (SW) 07:04:04 435.350 FM
KAITUO 1B 26 Jun 06:58:13 07:00:25 15° 92° (E) 07:02:37 145.475/437.950
CUTE-I 26 Jun 06:58:42 07:02:50 22° 93° (E) 07:06:57 437.470
STARS 26 Jun 07:05:37 07:09:02 22° 266° (W) 07:12:30 437.465
BEESAT 3 26 Jun 07:07:36 07:11:22 40° 243° (WSW) 07:15:05 437.485
AO-85 26 Jun 07:29:31 07:32:08 16° 248° (WSW) 07:34:51 145.980
NUDT-PHONESAT 26 Jun 07:32:05 07:35:33 38° 98° (E) 07:39:00 437.300
YUBILEINY 26 Jun 07:38:41 07:40:35 11° 51° (NE) 07:42:30 435.215
HO-68 26 Jun 07:40:54 07:45:42 19° 90° (E) 07:50:28 435.675
XW-2F 26 Jun 07:49:21 07:53:07 83° 102° (ESE) 07:56:50 145.980 - 146.000
XW-2D 26 Jun 07:53:46 07:57:33 80° 283° (WNW) 08:01:17 145.860 - 145.880
XW-2B 26 Jun 08:02:49 08:06:34 63° 285° (WNW) 08:10:16 145.730 - 145.750
LilacSat-2 26 Jun 08:02:51 08:06:36 59° 286° (WNW) 08:10:18 437.200
AO-7 26 Jun 08:06:42 08:10:48 15° 317° (NW) 08:14:54 .
BEESAT 2 26 Jun 08:08:11 08:11:38 27° 246° (WSW) 08:15:02 435.950
XW-2A 26 Jun 08:13:24 08:15:16 14° 92° (E) 08:17:08 145.665 - 145.685
STRAND 1 26 Jun 08:14:11 08:19:19 83° 258° (WSW) 08:24:31 437.568
XW-2C 26 Jun 08:18:31 08:22:04 39° 288° (WNW) 08:25:34 145.795 - 145.815
RS-15 26 Jun 08:19:08 08:30:08 44° 252° (WSW) 08:40:38 29.354- 29.394
O/OREOS (USA 219) 26 Jun 08:27:20 08:31:48 69° 250° (WSW) 08:36:14 437.305
KAITUO 1B 26 Jun 08:31:09 08:34:34 35° 288° (WNW) 08:37:57 145.475/437.950
DOVE 4 26 Jun 08:32:09 08:35:51 22° 294° (WNW) 08:39:40 437.250
CUTE-I 26 Jun 08:37:57 08:43:08 50° 290° (WNW) 08:48:18 437.470
SEEDS 26 Jun 08:47:35 08:51:27 36° 97° (E) 08:55:16 437.485
Tancredo 1 26 Jun 09:00:37 09:03:37 70° 144° (SE) 09:06:39 437.200
CUTE 1.7 + AOD 2 26 Jun 09:06:06 09:10:20 87° 278° (W) 09:14:31 437.475
NUDT-PHONESAT 26 Jun 09:06:57 09:09:07 15° 295° (WNW) 09:11:18 437.300
TIGRISAT 26 Jun 09:15:14 09:16:25 11° 59° (ENE) 09:17:36 435.000
AO-73 26 Jun 09:15:24 09:18:26 18° 91° (E) 09:21:24 145.935
CUBEBUG 2 26 Jun 09:24:11 09:28:55 75° 101° (E) 09:33:30 437.445
HO-68 26 Jun 09:26:59 09:34:11 82° 289° (WNW) 09:41:21 435.675
FO-29 26 Jun 09:27:05 09:32:25 30° 61° (ENE) 09:38:19 435.910
ISS 26 Jun 09:27:38 09:30:51 62° 143° (SE) 09:34:07 437.550
YUBILEINY 26 Jun 09:31:12 09:39:51 54° 76° (ENE) 09:48:23 435.215
AAUSAT CUBESAT 2 26 Jun 09:36:21 09:40:25 59° 100° (E) 09:44:28 437.432
Oscar 11 26 Jun 09:41:14 09:44:50 25° 95° (E) 09:48:24 .
XW-2A 26 Jun 09:45:03 09:48:08 32° 288° (WNW) 09:51:10 145.665 - 145.685
ZACube-1 26 Jun 09:49:56 09:54:15 46° 98° (E) 09:58:26 437.345
UNISAT 6 26 Jun 09:54:21 09:58:16 28° 67° (ENE) 10:02:16 437.425
UWE-3 26 Jun 09:56:29 10:01:07 84° 283° (WNW) 10:05:35 435.000/436.395/437.385
M-CUBED/EXP-1 PRIME 26 Jun 10:05:16 10:08:34 83° 252° (WSW) 10:11:49 437.505
SEEDS 26 Jun 10:23:50 10:26:53 20° 294° (WNW) 10:29:55 437.485
PRISM 26 Jun 10:26:45 10:30:44 59° 74° (ENE) 10:34:45 437.425
Tancredo 1 26 Jun 10:36:57 10:39:27 23° 342° (NNW) 10:41:58 437.200
TIGRISAT 26 Jun 10:47:41 10:52:18 88° 81° (E) 10:57:01 435.000
AO-73 26 Jun 10:50:40 10:54:53 43° 289° (WNW) 10:58:59 145.935
DELFI C3 26 Jun 10:56:16 11:00:03 44° 99° (E) 11:03:50 145.870
CUBEBUG 2 26 Jun 11:02:38 11:04:52 13° 299° (WNW) 11:07:03 437.445
ISS 26 Jun 11:04:43 11:07:34 26° 341° (NNW) 11:10:25 437.550
FO-29 26 Jun 11:11:13 11:17:05 50° 263° (W) 11:23:47 435.910
EO-79 26 Jun 11:11:20 11:12:43 11° 61° (ENE) 11:14:08 145.935-145.965
AAUSAT CUBESAT 2 26 Jun 11:13:32 11:15:23 13° 297° (WNW) 11:17:13 437.432
HO-68 26 Jun 11:16:26 11:20:51 18° 308° (NW) 11:25:15 435.675
Oscar 11 26 Jun 11:17:12 11:20:56 29° 291° (WNW) 11:24:38 .
DUCHIFAT 1 26 Jun 11:23:51 11:25:41 13° 62° (ENE) 11:27:32 145.980
ZACube-1 26 Jun 11:27:07 11:30:08 18° 296° (WNW) 11:33:07 437.345
YUBILEINY 26 Jun 11:28:35 11:36:15 35° 276° (W) 11:43:52 435.215
UNISAT 6 26 Jun 11:30:46 11:34:52 31° 264° (W) 11:39:02 437.425
NANOSAT C BR1 26 Jun 11:31:46 11:34:32 17° 64° (ENE) 11:37:19 145.865
EO-88 26 Jun 11:43:31 11:47:10 70° 284° (WNW) 11:50:46 145.990 - 145.960
LO-87 26 Jun 12:03:51 12:06:52 24° 95° (E) 12:09:53 145.935 - 145.965
PRISM 26 Jun 12:05:08 12:06:23 11° 270° (W) 12:07:40 437.425
ESTCUBE 1 26 Jun 12:07:45 12:10:50 18° 92° (E) 12:13:53 437.505/2401.250
AIST 2D 26 Jun 12:08:38 12:12:11 83° 258° (WSW) 12:15:46 435.315
POLYITAN 1 26 Jun 12:08:44 12:12:47 45° 72° (ENE) 12:16:54 437.675
Tancredo 1 26 Jun 12:13:52 12:15:48 15° 2° (N) 12:17:45 437.200
QB50P2 26 Jun 12:19:26 12:23:39 65° 74° (ENE) 12:27:55 145.880/145.840
BUGSAT 1 26 Jun 12:29:11 12:32:07 19° 65° (ENE) 12:35:06 437.445
DELFI C3 26 Jun 12:32:09 12:34:28 15° 295° (WNW) 12:36:48 145.870
PCSat 26 Jun 12:35:50 12:41:02 50° 114° (ESE) 12:46:18 145.827
ISS 26 Jun 12:42:32 12:44:50 17° 1° (N) 12:47:08 437.550
EO-79 26 Jun 12:43:37 12:47:52 74° 258° (WSW) 12:52:09 145.935-145.965
DUCHIFAT 1 26 Jun 12:56:36 13:00:48 66° 259° (W) 13:05:03 145.980
NANOSAT C BR1 26 Jun 13:05:48 13:09:52 46° 261° (W) 13:14:00 145.865
Oscar 19 26 Jun 13:12:37 13:16:48 26° 65° (ENE) 13:21:00 437.125/150
AO-7 26 Jun 13:32:55 13:36:00 12° 40° (NE) 13:39:04 .
LO-87 26 Jun 13:37:20 13:40:11 22° 291° (WNW) 13:43:03 145.935 - 145.965
VELOX 1 26 Jun 13:41:02 13:45:14 41° 99° (E) 13:49:25 145.980
ESTCUBE 1 26 Jun 13:43:34 13:47:51 44° 288° (WNW) 13:52:05 437.505/2401.250
POLYITAN 1 26 Jun 13:46:04 13:48:48 16° 268° (W) 13:51:33 437.675
Tancredo 1 26 Jun 13:49:22 13:52:06 29° 22° (NNE) 13:54:49 437.200
SPROUT 26 Jun 13:55:04 13:59:23 66° 101° (ESE) 14:03:38 437.525
DX 1 26 Jun 13:58:16 14:01:34 21° 94° (E) 14:04:51 434.975-435.025
QB50P2 26 Jun 13:58:28 13:59:52 11° 271° (W) 14:01:17 145.880/145.840
BUGSAT 1 26 Jun 14:03:19 14:07:12 39° 262° (W) 14:11:08 437.445
Gurwin Techsat 1B 26 Jun 14:12:12 14:17:22 56° 71° (ENE) 14:22:35 435.225
UKube-1 26 Jun 14:13:32 14:16:45 20° 94° (E) 14:19:57 .
ISS 26 Jun 14:19:04 14:22:04 30° 21° (NNE) 14:25:02 437.550
PCSat 26 Jun 14:20:05 14:24:41 28° 313° (NW) 14:29:21 145.827
SO-50 26 Jun 14:28:18 14:32:17 30° 115° (ESE) 14:36:15 436.795
50 SAT 26 Jun 14:49:10 14:52:32 58° 285° (WNW) 14:55:53 437.505
Oscar 19 26 Jun 14:51:02 14:55:53 41° 261° (W) 15:00:46 437.125/150
VELOX 1 26 Jun 15:18:09 15:21:24 20° 295° (WNW) 15:24:39 145.980
AO-7 26 Jun 15:18:53 15:26:47 50° 63° (ENE) 15:34:44 .
Tancredo 1 26 Jun 15:24:51 15:27:45 41° 220° (SW) 15:30:37 437.200
ITAMSAT 1 26 Jun 15:30:31 15:35:20 40° 68° (ENE) 15:40:12 435.822/435.867
SPROUT 26 Jun 15:32:47 15:34:43 13° 298° (WNW) 15:36:39 437.525
DX 1 26 Jun 15:33:49 15:37:51 37° 290° (WNW) 15:41:53 434.975-435.025
UKube-1 26 Jun 15:48:53 15:52:53 37° 290° (WNW) 15:56:52 .
ITUPSAT 1 26 Jun 15:52:55 15:56:43 23° 94° (E) 16:00:28 437.325
Gurwin Techsat 1B 26 Jun 15:53:54 15:57:40 19° 268° (W) 16:01:27 435.225
ISS 26 Jun 15:55:28 15:58:39 46° 220° (SW) 16:01:49 437.550
BEESAT 26 Jun 16:01:58 16:06:06 29° 96° (E) 16:10:12 436.000
SO-50 26 Jun 16:08:31 16:12:40 34° 313° (NW) 16:16:48 436.795
MOZHAYETS 4 26 Jun 17:00:30 17:05:07 76° 103° (ESE) 17:09:40
ITAMSAT 1 26 Jun 17:10:33 17:14:54 26° 265° (W) 17:19:16 435.822/435.867
AO-7 26 Jun 17:12:02 17:19:40 39° 261° (W) 17:27:23 .
ITUPSAT 1 26 Jun 17:30:11 17:34:40 40° 291° (WNW) 17:39:05 437.325
BEESAT 26 Jun 17:39:38 17:43:51 32° 293° (WNW) 17:48:03 436.000
CUBESAT XI-V 26 Jun 17:44:25 17:48:46 41° 98° (E) 17:53:06 437.345
DOVE 4 26 Jun 18:00:22 18:04:22 46° 72° (ENE) 18:08:30 437.250
HO-68 26 Jun 18:11:49 18:16:14 18° 52° (NE) 18:20:38 435.675
NUDT-PHONESAT 26 Jun 18:12:24 18:15:14 21° 68° (ENE) 18:18:04 437.300
CUTE-I 26 Jun 18:21:00 18:25:54 39° 68° (ENE) 18:30:51 437.470
KKS-1 26 Jun 18:26:11 18:30:41 74° 104° (ESE) 18:35:09 437.445
XW-2F 26 Jun 18:30:36 18:34:12 42° 73° (ENE) 18:37:51 145.980 - 146.000
XW-2D 26 Jun 18:35:16 18:39:00 52° 73° (ENE) 18:42:44 145.860 - 145.880
MOZHAYETS 4 26 Jun 18:39:42 18:41:38 13° 300° (WNW) 18:43:33
XW-2B 26 Jun 18:44:14 18:48:02 65° 75° (ENE) 18:51:50 145.730 - 145.750
LilacSat-2 26 Jun 18:44:50 18:48:41 72° 76° (ENE) 18:52:32 437.200
STARS 26 Jun 18:52:43 18:57:08 60° 101° (E) 19:01:31 437.465
XW-2C 26 Jun 18:59:44 19:03:35 79° 258° (WSW) 19:07:26 145.795 - 145.815
KAITUO 1B 26 Jun 19:11:03 19:14:50 74° 259° (W) 19:18:37 145.475/437.950
UWE-3 26 Jun 19:21:40 19:22:19 10° 59° (ENE) 19:22:59 435.000/436.395/437.385
CUBESAT XI-V 26 Jun 19:22:24 19:25:52 21° 295° (WNW) 19:29:19 437.345
SEEDS 26 Jun 19:39:58 19:43:32 28° 69° (ENE) 19:47:07 437.485
DOVE 4 26 Jun 19:40:01 19:42:24 15° 270° (W) 19:44:50 437.250
PCSat 26 Jun 19:41:39 19:43:16 11° 32° (NNE) 19:44:52 145.827
NUDT-PHONESAT 26 Jun 19:45:42 19:48:58 28° 264° (W) 19:52:15 437.300
HO-68 26 Jun 19:55:41 20:02:53 81° 71° (ENE) 20:10:07 435.675
CUTE 1.7 + AOD 2 26 Jun 19:58:58 20:03:11 71° 76° (ENE) 20:07:26 437.475
CUTE-I 26 Jun 20:01:30 20:06:02 28° 265° (W) 20:10:36 437.470
KKS-1 26 Jun 20:04:43 20:06:37 13° 300° (WNW) 20:08:31 437.445
AO-85 26 Jun 20:05:56 20:07:32 12° 110° (ESE) 20:09:07 145.980
XW-2F 26 Jun 20:06:30 20:08:33 14° 269° (W) 20:10:36 145.980 - 146.000
AO-73 26 Jun 20:11:38 20:14:37 17° 64° (ENE) 20:17:36 145.935
XW-2D 26 Jun 20:12:12 20:13:29 11° 270° (W) 20:14:47 145.860 - 145.880
XW-2A 26 Jun 20:16:11 20:19:38 86° 76° (ENE) 20:23:06 145.665 - 145.685
CUBEBUG 2 26 Jun 20:22:17 20:26:50 66° 74° (ENE) 20:31:32 437.445
STRAND 1 26 Jun 20:24:10 20:28:46 32° 96° (E) 20:33:20 437.568
AAUSAT CUBESAT 2 26 Jun 20:26:54 20:30:47 42° 72° (ENE) 20:34:40 437.432
STARS 26 Jun 20:30:31 20:32:59 15° 298° (WNW) 20:35:26 437.465
RS-15 26 Jun 20:30:54 20:41:09 34° 104° (ESE) 20:51:33 29.354- 29.394
Oscar 11 26 Jun 20:36:51 20:40:15 23° 67° (ENE) 20:43:38 .
YUBILEINY 26 Jun 20:45:31 20:46:27 10° 70° (ENE) 20:47:24 435.215
ZACube-1 26 Jun 20:45:51 20:50:07 40° 71° (ENE) 20:54:26 437.345
UWE-3 26 Jun 20:53:21 20:57:57 84° 75° (ENE) 21:02:40 435.000/436.395/437.385
BEESAT 3 26 Jun 20:58:00 21:01:16 25° 114° (ESE) 21:04:34 437.485
O/OREOS (USA 219) 26 Jun 21:04:05 21:05:50 12° 98° (E) 21:07:35 437.305
SEEDS 26 Jun 21:15:40 21:19:10 25° 265° (W) 21:22:41 437.485
PCSat 26 Jun 21:22:46 21:28:03 49° 54° (NE) 21:33:17 145.827
CUTE 1.7 + AOD 2 26 Jun 21:39:07 21:39:29 10° 272° (W) 21:39:52 437.475
DELFI C3 26 Jun 21:42:28 21:45:49 27° 69° (ENE) 21:49:10 145.870
AO-85 26 Jun 21:43:25 21:47:26 62° 306° (NW) 21:51:21 145.980
AO-73 26 Jun 21:45:58 21:50:24 53° 260° (W) 21:54:54 145.935
HO-68 26 Jun 21:46:29 21:51:21 19° 270° (W) 21:56:15 435.675
BEESAT 2 26 Jun 21:59:21 22:03:03 39° 117° (ESE) 22:06:51 435.950
CUBEBUG 2 26 Jun 22:01:44 22:03:55 13° 272° (W) 22:06:10 437.445
STRAND 1 26 Jun 22:03:20 22:07:54 33° 293° (WNW) 22:12:27 437.568
AAUSAT CUBESAT 2 26 Jun 22:03:49 22:06:25 16° 268° (W) 22:09:02 437.432
Oscar 11 26 Jun 22:12:13 22:16:10 34° 263° (W) 22:20:10 .
NO-84 26 Jun 22:13:53 22:17:40 55° 134° (SE) 22:21:45 435.350 FM
FO-29 26 Jun 22:19:13 22:25:52 29° 91° (E) 22:32:24 435.910
EO-88 26 Jun 22:21:34 22:25:08 52° 74° (ENE) 22:28:43 145.990 - 145.960
ZACube-1 26 Jun 22:23:05 22:26:32 21° 268° (W) 22:30:00 437.345
YUBILEINY 26 Jun 22:32:39 22:41:13 60° 91° (E) 22:49:52 435.215
BEESAT 3 26 Jun 22:35:05 22:38:43 32° 312° (NW) 22:42:23 437.485
TIGRISAT 26 Jun 22:39:28 22:42:41 18° 91° (E) 22:45:51 435.000
O/OREOS (USA 219) 26 Jun 22:40:06 22:44:37 68° 294° (WNW) 22:49:09 437.305
LO-87 26 Jun 22:42:11 22:43:37 12° 64° (ENE) 22:45:03 145.935 - 145.965
SO-50 26 Jun 22:58:14 23:02:25 36° 48° (NE) 23:06:37 436.795
